This is the latest recevied weather packets stored in our database for station/object K4ZZR. If no packets are shown the sender has not sent any weather packets the latest 10 day(s).
| Time | Temp. | Humidity | Pressure | Rain* | Wind** | Luminosity | Snow |
|---|---|---|---|---|---|---|---|
| 1778178890 | 33.33° C | 52% | 1014.7 hPa | 0 mm | - | 892 W/m² | - |
| 1778178588 | 32.78° C | 55% | 1014.8 hPa | 0 mm | - | 886 W/m² | - |
| 1778178284 | 32.22° C | 56% | 1014.7 hPa | 0 mm | - | 924 W/m² | - |
| 1778177980 | 31.67° C | 58% | 1015 hPa | 0 mm | - | 220 W/m² | - |
| 1778177676 | 31.67° C | 58% | 1014.9 hPa | 0 mm | - | 207 W/m² | - |
| 1778177373 | 32.22° C | 55% | 1014.9 hPa | 0 mm | - | 941 W/m² | - |
| 1778177070 | 32.22° C | 56% | 1014.6 hPa | 0 mm | - | 934 W/m² | - |
| 1778176766 | 32.22° C | 57% | 1014.7 hPa | 0 mm | - | 943 W/m² | - |
| 1778176463 | 32.22° C | 58% | 1014.7 hPa | 0 mm | - | 946 W/m² | - |
| 1778176161 | 31.67° C | 60% | 1014.8 hPa | 0 mm | - | 858 W/m² | - |
| 1778175858 | 31.67° C | 57% | 1014.6 hPa | 0 mm | - | 768 W/m² | - |
| 1778175555 | 31.67° C | 57% | 1014.9 hPa | 0 mm | - | 986 W/m² | - |
| 1778175252 | 31.67° C | 58% | 1014.7 hPa | 0 mm | - | 889 W/m² | - |
| 1778174949 | 31.67° C | 61% | 1014.8 hPa | 0 mm | - | 873 W/m² | - |
| 1778174645 | 31.11° C | 60% | 1015.2 hPa | 0 mm | - | 993 W/m² | - |
| 1778174341 | 31.11° C | 62% | 1015 hPa | 0 mm | - | 996 W/m² | - |
| 1778174038 | 31.11° C | 61% | 1015.1 hPa | 0 mm | - | 974 W/m² | - |
| 1778173735 | 30.56° C | 61% | 1015.1 hPa | 0 mm | - | 986 W/m² | - |
| 1778173432 | 31.67° C | 60% | 1015.2 hPa | 0 mm | - | 976 W/m² | - |
| 1778173128 | 31.67° C | 60% | 1015 hPa | 0 mm | - | 1003 W/m² | - |
| 1778172824 | 31.11° C | 62% | 1015.1 hPa | 0 mm | - | 1014 W/m² | - |
| 1778172520 | 31.11° C | 61% | 1015.3 hPa | 0 mm | - | 935 W/m² | - |
| 1778172217 | 30.56° C | 61% | 1015.2 hPa | 0 mm | - | 947 W/m² | - |
| 1778171914 | 30.56° C | 62% | 1015.4 hPa | 0 mm | - | 204 W/m² | - |
| 1778171612 | 30.56° C | 62% | 1015.6 hPa | 0 mm | - | 905 W/m² | - |
* Rain latest hour (hover to see other rain measurements)
** Current wind speed in m/s (hover to see current wind gust speed)